TimeEDT,TemperatureF,Dew PointF,Humidity,Sea Level PressureIn,VisibilityMPH,Wind Direction,Wind SpeedMPH,Gust SpeedMPH,PrecipitationIn,Events,Conditions,WindDirDegrees,DateUTC
12:15 AM,54.0,30.0,40,30.04,10.0,North,6.9,-,N/A,,Clear,360,2014-03-23 04:15:00
12:35 AM,52.7,30.0,42,30.04,10.0,North,3.5,-,N/A,,Clear,10,2014-03-23 04:35:00
12:55 AM,52.5,30.4,43,30.04,10.0,NNE,6.9,-,N/A,,Clear,20,2014-03-23 04:55:00
1:15 AM,51.1,30.9,46,30.04,10.0,North,6.9,-,N/A,,Clear,350,2014-03-23 05:15:00
1:35 AM,50.9,31.3,47,30.05,10.0,North,8.1,-,N/A,,Clear,360,2014-03-23 05:35:00
1:55 AM,50.5,31.6,48,30.06,10.0,North,8.1,-,N/A,,Clear,360,2014-03-23 05:55:00
2:15 AM,49.1,32.0,52,30.06,10.0,North,8.1,-,N/A,,Clear,360,2014-03-23 06:15:00
2:35 AM,48.4,32.0,53,30.06,10.0,North,11.5,-,N/A,,Clear,350,2014-03-23 06:35:00
2:55 AM,47.5,32.0,55,30.07,10.0,North,11.5,-,N/A,,Clear,360,2014-03-23 06:55:00
3:15 AM,47.3,31.8,55,30.07,10.0,North,11.5,-,N/A,,Clear,360,2014-03-23 07:15:00
3:35 AM,46.4,31.8,57,30.06,10.0,North,8.1,-,N/A,,Clear,360,2014-03-23 07:35:00
3:55 AM,46.4,31.6,56,30.07,10.0,North,11.5,17.3,N/A,,Clear,360,2014-03-23 07:55:00
4:15 AM,45.5,31.1,57,30.08,10.0,North,8.1,-,N/A,,Clear,360,2014-03-23 08:15:00
4:35 AM,45.0,30.9,58,30.08,10.0,North,9.2,-,N/A,,Clear,10,2014-03-23 08:35:00
4:55 AM,43.9,30.4,59,30.09,10.0,North,6.9,-,N/A,,Clear,360,2014-03-23 08:55:00
5:15 AM,43.7,29.8,58,30.10,10.0,North,11.5,-,N/A,,Clear,360,2014-03-23 09:15:00
5:35 AM,43.0,29.3,59,30.10,10.0,North,5.8,-,N/A,,Clear,10,2014-03-23 09:35:00
5:55 AM,42.6,29.1,59,30.10,10.0,North,5.8,-,N/A,,Clear,360,2014-03-23 09:55:00
6:15 AM,42.3,28.4,58,30.10,10.0,NNE,9.2,-,N/A,,Clear,20,2014-03-23 10:15:00
6:35 AM,41.9,28.4,59,30.11,10.0,North,8.1,-,N/A,,Clear,10,2014-03-23 10:35:00
6:55 AM,41.9,28.4,59,30.12,10.0,North,5.8,-,N/A,,Clear,10,2014-03-23 10:55:00
7:15 AM,41.7,28.2,59,30.13,10.0,North,8.1,-,N/A,,Clear,360,2014-03-23 11:15:00
7:35 AM,41.9,28.4,59,30.14,10.0,North,5.8,-,N/A,,Clear,360,2014-03-23 11:35:00
7:55 AM,41.9,28.2,58,30.15,10.0,North,4.6,-,N/A,,Clear,360,2014-03-23 11:55:00
8:15 AM,42.1,28.2,58,30.14,10.0,North,5.8,-,N/A,,Clear,10,2014-03-23 12:15:00
8:35 AM,42.3,28.4,58,30.14,10.0,Calm,Calm,-,N/A,,Clear,0,2014-03-23 12:35:00
8:55 AM,42.8,27.9,56,30.15,10.0,North,4.6,-,N/A,,Clear,10,2014-03-23 12:55:00
9:15 AM,43.7,28.0,54,30.14,10.0,North,6.9,-,N/A,,Clear,10,2014-03-23 13:15:00
9:35 AM,43.7,27.9,54,30.14,10.0,North,10.4,18.4,N/A,,Clear,350,2014-03-23 13:35:00
9:55 AM,44.1,27.9,53,30.13,10.0,North,10.4,-,N/A,,Clear,10,2014-03-23 13:55:00
10:15 AM,44.2,27.5,52,30.13,10.0,North,9.2,-,N/A,,Clear,10,2014-03-23 14:15:00
10:35 AM,44.6,27.7,52,30.13,10.0,North,10.4,-,N/A,,Clear,10,2014-03-23 14:35:00
10:55 AM,44.8,27.1,50,30.14,10.0,North,8.1,-,N/A,,Scattered Clouds,350,2014-03-23 14:55:00
11:15 AM,44.8,27.1,50,30.13,10.0,North,8.1,17.3,N/A,,Mostly Cloudy,360,2014-03-23 15:15:00
11:35 AM,45.5,27.1,49,30.15,10.0,North,6.9,-,N/A,,Mostly Cloudy,350,2014-03-23 15:35:00
11:55 AM,44.8,28.6,53,30.15,10.0,NNW,8.1,-,N/A,,Overcast,330,2014-03-23 15:55:00
12:15 PM,44.6,27.3,51,30.14,10.0,NNW,6.9,-,N/A,,Overcast,340,2014-03-23 16:15:00
12:35 PM,44.8,26.2,48,30.14,10.0,North,4.6,-,N/A,,Overcast,10,2014-03-23 16:35:00
12:55 PM,44.8,27.3,50,30.14,10.0,NNW,6.9,-,N/A,,Overcast,330,2014-03-23 16:55:00
1:15 PM,44.2,27.1,51,30.13,10.0,NNW,8.1,-,N/A,,Overcast,340,2014-03-23 17:15:00
1:35 PM,44.1,27.0,51,30.12,10.0,North,9.2,-,N/A,,Overcast,360,2014-03-23 17:35:00
1:55 PM,44.2,27.0,51,30.11,10.0,North,5.8,-,N/A,,Overcast,350,2014-03-23 17:55:00
2:15 PM,45.1,27.9,51,30.10,10.0,NNW,4.6,-,N/A,,Overcast,340,2014-03-23 18:15:00
2:35 PM,45.9,27.9,49,30.10,10.0,Calm,Calm,-,N/A,,Overcast,0,2014-03-23 18:35:00
2:55 PM,45.5,26.6,48,30.09,10.0,North,9.2,-,N/A,,Overcast,350,2014-03-23 18:55:00
3:15 PM,45.5,27.1,49,30.09,10.0,NNW,6.9,-,N/A,,Overcast,340,2014-03-23 19:15:00
3:35 PM,45.5,27.5,49,30.08,10.0,NW,5.8,-,N/A,,Overcast,320,2014-03-23 19:35:00
3:55 PM,46.4,28.0,49,30.07,10.0,North,5.8,-,N/A,,Overcast,360,2014-03-23 19:55:00
4:15 PM,46.6,27.5,47,30.07,10.0,NNW,8.1,-,N/A,,Overcast,330,2014-03-23 20:15:00
4:35 PM,45.5,27.5,49,30.05,10.0,Calm,Calm,-,N/A,,Overcast,0,2014-03-23 20:35:00
4:55 PM,46.2,27.1,47,30.04,10.0,NE,3.5,-,N/A,,Overcast,40,2014-03-23 20:55:00
5:15 PM,48.2,27.9,45,30.04,10.0,North,4.6,-,N/A,,Mostly Cloudy,360,2014-03-23 21:15:00
5:35 PM,47.1,28.8,49,30.05,10.0,North,9.2,16.1,N/A,,Mostly Cloudy,350,2014-03-23 21:35:00
5:55 PM,46.4,28.0,49,30.05,10.0,North,13.8,-,N/A,,Overcast,360,2014-03-23 21:55:00
6:15 PM,45.3,28.8,52,30.07,10.0,North,11.5,17.3,N/A,,Mostly Cloudy,350,2014-03-23 22:15:00
6:35 PM,44.4,29.1,55,30.08,10.0,NW,10.4,-,N/A,,Overcast,320,2014-03-23 22:35:00
6:55 PM,43.9,29.5,57,30.08,10.0,NNW,13.8,-,N/A,,Overcast,330,2014-03-23 22:55:00
7:15 PM,43.7,27.3,53,30.09,10.0,NW,9.2,-,N/A,,Overcast,310,2014-03-23 23:15:00
7:35 PM,41.9,27.1,56,30.10,10.0,NW,6.9,-,N/A,,Mostly Cloudy,320,2014-03-23 23:35:00
7:55 PM,40.1,25.9,57,30.11,10.0,NNW,8.1,-,N/A,,Scattered Clouds,330,2014-03-23 23:55:00
8:15 PM,41.4,23.0,48,30.11,10.0,NW,10.4,-,N/A,,Scattered Clouds,320,2014-03-24 00:15:00
8:35 PM,41.7,20.1,42,30.12,10.0,NNW,15.0,-,N/A,,Scattered Clouds,340,2014-03-24 00:35:00
8:55 PM,41.0,19.2,42,30.13,10.0,NNW,13.8,-,N/A,,Scattered Clouds,340,2014-03-24 00:55:00
9:15 PM,40.3,18.7,42,30.15,10.0,NNW,12.7,-,N/A,,Clear,340,2014-03-24 01:15:00
9:35 PM,40.1,18.0,41,30.15,10.0,NNW,10.4,18.4,N/A,,Clear,340,2014-03-24 01:35:00
9:55 PM,39.2,17.8,42,30.17,10.0,NNW,12.7,-,N/A,,Clear,330,2014-03-24 01:55:00
10:15 PM,38.7,17.4,42,30.18,10.0,NNW,15.0,23.0,N/A,,Clear,330,2014-03-24 02:15:00
10:35 PM,37.8,16.9,43,30.19,10.0,NNW,17.3,23.0,N/A,,Clear,330,2014-03-24 02:35:00
10:55 PM,37.0,15.6,42,30.20,10.0,NNW,17.3,26.5,N/A,,Clear,330,2014-03-24 02:55:00
11:15 PM,36.1,15.1,42,30.21,10.0,NNW,11.5,-,N/A,,Clear,330,2014-03-24 03:15:00
11:35 PM,35.8,14.4,42,30.22,10.0,NNW,16.1,24.2,N/A,,Clear,330,2014-03-24 03:35:00
11:55 PM,34.9,13.6,42,30.23,10.0,NNW,16.1,21.9,N/A,,Clear,340,2014-03-24 03:55:00